sat.trackr.live / text

‹ back to catalog

TIANYI C

NORAD 64050 · 2025-103C

PAYLOAD ACTIVE UNKNOWN

§ Identity

Operator
Country
PRC
Launch date
2025-05-17
Launch site
JSC
Launch vehicle
Mass (kg)
RCS (m²)

External: N2YO · Heavens-Above · Gunter

§ Orbital elements

Epoch: 2026-05-25T04:40:31.350720Z

Period
94.75 min
Inclination
97.3754°
Eccentricity
0.0001694
Mean motion
15.19777901 rev/d
Perigee alt
505.3 km
Apogee alt
507.7 km
Semi-major
6,884.6 km
B*
1.4902e-4
RAAN
217.3536°
Arg perigee
220.5083°
Mean anomaly
139.6026°
Rev number
5,657

§ Raw data

TIANYI C1 64050U 25103C   26145.19480730  .00003122  00000+0  14902-3 0  99922 64050  97.3754 217.3536 0001694 220.5083 139.6026 15.19777901 56576

JSON: /api/v1/satellites/64050 · /tle

For live sub-satellite position, see the globe view (requires WebGL).

§ Visibility from observer

Set your observer location to see the next 7 days of passes ≥ 10°. The values pass through the URL so the page stays shareable.

No JS? Fill the form by hand. The geolocation button needs JavaScript.

§ Radio — SatNOGS DB

ModeDescriptionDownlinkUplink
FSK Mode U TLM 401.100 MHz

1 transmitter · refreshed weekly from db.satnogs.org